Weather reports worldwide

Advertisment
Sa Pobla, Spain (8312): temperature & dewpoint: 05.12.2019 09:00:00 - 11.12.2019 09:00:00 (CET)Sa Pobla, Spain (8312): wind speed & gusts: 05.12.2019 09:00:00 - 11.12.2019 09:00:00 (CET)Sa Pobla, Spain (8312): wind direction: 05.12.2019 09:00:00 - 11.12.2019 09:00:00 (CET)Sa Pobla, Spain (8312): reduced air pressure: 05.12.2019 09:00:00 - 11.12.2019 09:00:00 (CET)Sa Pobla, Spain (8312): visibility: 05.12.2019 09:00:00 - 11.12.2019 09:00:00 (CET)Sa Pobla, Spain (8312): sunshine duration: 05.12.2019 09:00:00 - 11.12.2019 09:00:00 (CET)Sa Pobla, Spain (8312): precipitation: 05.12.2019 09:00:00 - 11.12.2019 09:00:00 (CET)
Date & Time tt [°C] td [°C] ff [km/h] ff [kn] fx [km/h] fx [kn] dd ppp [hPa] vv [km] sd [min] rr [mm]
11.12.2019 09:00:00 - - - - - - - - - - -
11.12.2019 08:00:00 3,0 2,3 7 4 15 8 SSW 1020,7 20 0 0,0
11.12.2019 07:00:00 2,8 2,3 6 4 11 6 SSW 1021,3 20 0 -
11.12.2019 06:00:00 3,0 2,5 6 3 9 5 SW 1021,7 20 0 0,0
11.12.2019 05:00:00 3,3 2,7 5 3 14 7 WSW 1022,4 20 0 0,0
11.12.2019 04:00:00 3,3 2,7 7 4 13 7 SW 1022,7 20 0 0,0
11.12.2019 03:00:00 3,2 2,7 3 2 10 5 SSE 1023,1 13 0 0,0
11.12.2019 02:00:00 4,1 3,4 3 2 13 7 WSW 1023,7 13 0 0,0
11.12.2019 01:00:00 4,4 3,6 4 2 10 5 SSW 1024,2 12 0 -
11.12.2019 00:00:00 4,9 3,9 4 2 8 4 WSW 1024,3 10 0 0,0
10.12.2019 23:00:00 5,4 4,3 3 1 10 5 S 1024,1 13 0 0,0
10.12.2019 22:00:00 6,0 4,8 4 2 12 7 SSW 1024,0 12 0 0,0
10.12.2019 21:00:00 6,7 5,1 6 3 9 5 S 1024,2 12 0 0,0
10.12.2019 20:00:00 7,7 5,5 4 2 7 4 SSW 1024,3 15 0 0,0
10.12.2019 19:00:00 9,2 5,8 3 1 9 5 N 1023,9 20 0 -
10.12.2019 18:00:00 11,8 6,2 5 3 11 6 SSW 1023,6 20 0 0,0
10.12.2019 17:00:00 13,9 6,2 6 4 16 9 SW 1023,5 20 29 0,0
10.12.2019 16:00:00 16,0 1,7 4 2 14 8 E 1023,4 20 60 0,0
10.12.2019 15:00:00 15,9 0,4 9 5 32 17 N 1023,4 20 60 0,0
10.12.2019 14:00:00 15,7 -0,5 23 12 38 20 NNE 1023,9 20 60 0,0
10.12.2019 13:00:00 16,0 -0,7 17 9 38 21 N 1025,0 20 60 -
10.12.2019 12:00:00 15,2 3,0 15 8 27 15 NNE 1026,0 20 60 0,0
10.12.2019 11:00:00 14,8 2,7 13 7 28 15 N 1026,6 20 60 0,0
10.12.2019 10:00:00 13,7 6,5 16 8 28 15 NNE 1026,3 20 44 0,0
10.12.2019 09:00:00 11,6 5,6 11 6 30 16 NNE 1025,7 20 0 0,0
10.12.2019 08:00:00 11,7 6,2 10 5 28 15 N 1024,8 20 0 0,0
10.12.2019 07:00:00 12,3 5,6 12 6 33 18 NNW 1024,2 20 0 -
10.12.2019 06:00:00 11,9 5,8 4 2 18 10 WNW 1023,8 20 0 0,0
10.12.2019 05:00:00 12,5 6,1 4 2 27 15 NNW 1024,1 20 0 0,0
10.12.2019 04:00:00 13,0 5,1 6 3 23 12 NW 1023,7 20 0 0,0
10.12.2019 03:00:00 13,1 5,8 13 7 30 16 NNW 1023,6 20 0 0,0
10.12.2019 02:00:00 13,2 5,3 15 8 32 17 NW 1023,7 20 0 0,0
10.12.2019 01:00:00 12,9 5,6 9 5 29 16 WNW 1024,1 20 0 -
10.12.2019 00:00:00 13,1 5,5 8 4 33 18 WNW 1023,7 20 0 0,0
09.12.2019 23:00:00 13,8 5,5 11 6 41 22 WNW 1023,2 20 0 0,0
09.12.2019 22:00:00 14,4 5,0 24 13 53 28 WNW 1022,4 20 0 0,0
09.12.2019 21:00:00 14,7 5,8 27 15 51 28 NW 1022,3 20 0 0,0
09.12.2019 20:00:00 14,9 6,2 26 14 48 26 NW 1022,0 20 0 0,0
09.12.2019 19:00:00 14,9 5,9 10 6 33 18 WSW 1022,1 20 0 -
09.12.2019 18:00:00 14,8 5,6 10 6 56 30 W 1021,5 20 0 0,0
09.12.2019 17:00:00 14,9 5,1 31 17 67 36 NW 1019,6 20 29 0,0
09.12.2019 16:00:00 15,7 5,6 31 17 77 42 WNW 1018,8 20 60 0,0
09.12.2019 15:00:00 16,1 5,1 33 18 85 46 WNW 1018,5 20 60 0,0
09.12.2019 14:00:00 16,3 4,6 44 24 87 47 WNW 1018,1 20 60 0,0
09.12.2019 13:00:00 16,1 3,2 42 23 100 54 WNW 1018,1 20 60 -
09.12.2019 12:00:00 18,1 -0,3 19 10 61 33 W 1020,3 20 60 0,0
09.12.2019 11:00:00 17,3 2,9 16 9 46 25 W 1022,0 20 60 0,0
09.12.2019 10:00:00 16,1 4,8 8 5 30 16 N 1022,2 20 60 0,0
09.12.2019 09:00:00 9,4 9,0 7 4 12 7 S 1021,0 17 45 0,0
09.12.2019 08:00:00 7,7 7,3 3 2 9 5 W 1020,9 16 0 0,0
09.12.2019 07:00:00 8,8 8,4 4 2 13 7 SW 1020,9 9 0 -
09.12.2019 06:00:00 9,8 9,3 3 2 11 6 SSW 1021,1 11 0 0,0
09.12.2019 05:00:00 10,2 9,4 4 2 13 7 E 1020,9 12 0 0,0
09.12.2019 04:00:00 11,7 11,1 8 4 13 7 WSW 1021,0 20 0 0,0
09.12.2019 03:00:00 11,8 11,2 5 3 11 6 SW 1021,8 12 0 0,0
09.12.2019 02:00:00 11,7 10,9 5 3 8 4 NW 1022,1 14 0 0,0
09.12.2019 01:00:00 12,1 11,1 5 3 19 11 ESE 1022,1 15 0 -
09.12.2019 00:00:00 11,7 11,1 6 3 13 7 S 1021,9 16 0 0,0
08.12.2019 23:00:00 10,4 9,7 6 3 14 7 SSW 1022,0 12 0 0,0
08.12.2019 22:00:00 10,1 9,2 6 3 10 5 SSE 1022,4 11 0 0,0
08.12.2019 21:00:00 10,4 9,0 5 3 14 8 SE 1022,4 10 0 0,0
08.12.2019 20:00:00 11,0 9,3 4 2 11 6 N 1022,5 17 0 0,0
08.12.2019 19:00:00 12,6 10,2 8 4 19 10 SW 1022,3 20 0 -
08.12.2019 18:00:00 13,5 10,3 5 3 17 9 SW 1022,0 20 0 0,0
08.12.2019 17:00:00 15,3 10,5 9 5 19 11 SW 1022,0 20 29 0,0
08.12.2019 16:00:00 17,7 11,4 8 4 16 9 SSW 1022,0 20 60 0,0
08.12.2019 15:00:00 18,1 11,7 6 4 13 7 SSW 1021,9 20 60 0,0
08.12.2019 14:00:00 17,3 11,3 3 1 13 7 W 1022,6 20 60 0,0
08.12.2019 13:00:00 15,2 13,8 3 2 9 5 SSE 1023,5 20 60 -
08.12.2019 12:00:00 13,0 12,8 5 3 9 5 S 1024,6 10 32 0,0
08.12.2019 11:00:00 11,3 11,1 5 3 11 6 SSW 1025,0 0,4 0 0,0
08.12.2019 10:00:00 9,1 8,9 4 2 8 4 SSE 1024,9 0,2 0 0,0
08.12.2019 09:00:00 6,4 6,2 4 2 6 3 SSW 1024,7 0,1 0 0,0
08.12.2019 08:00:00 5,0 4,8 6 3 9 5 S 1024,4 10 0 0,0
08.12.2019 07:00:00 5,1 4,8 6 4 10 5 SSW 1024,2 9 0 -
08.12.2019 06:00:00 5,6 5,3 7 4 10 5 S 1023,9 10 0 0,0
08.12.2019 05:00:00 5,7 5,5 6 3 15 8 SSW 1024,0 8 0 0,0
08.12.2019 04:00:00 5,6 5,3 6 3 10 5 SW 1024,3 6 0 0,2
08.12.2019 03:00:00 6,0 5,8 5 3 10 6 S 1024,5 3,1 0 0,0
08.12.2019 02:00:00 6,4 5,9 8 4 11 6 SSW 1024,9 3,7 0 0,0
08.12.2019 01:00:00 6,9 6,4 6 3 9 5 SSW 1025,1 2,6 0 -
08.12.2019 00:00:00 7,4 7,0 5 3 10 5 SW 1025,4 2,3 0 0,0
07.12.2019 23:00:00 7,8 7,4 6 4 9 5 SSW 1025,2 1,9 0 0,0
07.12.2019 22:00:00 8,2 7,6 4 2 8 4 SSW 1024,7 1,8 0 0,0
07.12.2019 21:00:00 9,1 8,5 5 3 8 4 S 1024,4 2,7 0 0,0
07.12.2019 20:00:00 9,8 9,0 5 3 7 4 WSW 1024,3 6 0 0,0
07.12.2019 19:00:00 10,5 9,4 2 1 4 2 W 1024,1 5 0 -
07.12.2019 18:00:00 12,0 10,5 1 1 5 3 N 1023,7 3,5 0 0,0
07.12.2019 17:00:00 14,2 11,9 2 1 3 2 NE 1023,4 16 17 0,0
07.12.2019 16:00:00 15,9 13,1 3 2 10 5 NNE 1023,2 20 31 0,0
07.12.2019 15:00:00 17,3 12,8 3 2 6 4 SSE 1023,1 20 47 0,0
07.12.2019 14:00:00 15,6 12,5 2 1 9 5 E 1023,4 20 11 0,0
07.12.2019 13:00:00 16,6 13,4 5 3 10 5 SSE 1024,3 20 60 -
07.12.2019 12:00:00 15,1 13,9 4 2 8 4 ESE 1024,9 20 60 0,0
07.12.2019 11:00:00 11,3 11,1 5 3 12 7 S 1025,3 20 56 0,0
07.12.2019 10:00:00 8,2 8,1 3 1 10 5 S 1024,9 12 9 0,0
07.12.2019 09:00:00 6,3 5,9 5 3 10 5 SSW 1024,8 9 0 0,0
07.12.2019 08:00:00 6,2 5,9 5 3 12 6 S 1024,2 6 0 0,0
07.12.2019 07:00:00 6,5 6,2 8 5 13 7 SW 1024,0 9 0 -
07.12.2019 06:00:00 6,2 5,9 6 4 13 7 S 1023,9 4,5 0 0,0
07.12.2019 05:00:00 6,6 6,2 9 5 11 6 SSW 1024,4 7 0 0,0
07.12.2019 04:00:00 7,1 6,8 4 2 9 5 S 1024,6 2,9 0 0,0
07.12.2019 03:00:00 7,6 7,3 7 4 12 6 SSW 1024,7 4,4 0 0,0
07.12.2019 02:00:00 7,8 7,4 4 2 11 6 SW 1023,9 3,2 0 0,0
07.12.2019 01:00:00 8,5 8,1 6 3 8 5 S 1023,9 0,4 0 -
07.12.2019 00:00:00 9,2 8,8 5 3 9 5 SW 1024,6 4,1 0 0,0
06.12.2019 23:00:00 9,5 8,9 3 2 7 4 S 1024,7 1,0 0 0,0
06.12.2019 22:00:00 10,6 9,8 4 2 10 5 SW 1024,6 6 0 0,0
06.12.2019 21:00:00 11,7 10,9 5 3 8 5 SW 1024,5 8 0 0,0
06.12.2019 20:00:00 12,5 11,6 2 1 7 4 WSW 1024,4 12 0 0,0
06.12.2019 19:00:00 12,3 11,2 4 2 5 3 NNW 1023,9 7 0 -
06.12.2019 18:00:00 13,0 11,2 3 2 7 4 NE 1023,3 18 0 0,0
06.12.2019 17:00:00 15,2 12,3 4 2 14 8 ENE 1022,9 20 29 0,0
06.12.2019 16:00:00 16,7 12,6 7 4 17 9 ENE 1022,9 20 60 0,0
06.12.2019 15:00:00 17,2 13,0 9 5 18 10 ENE 1022,9 20 60 0,0
06.12.2019 14:00:00 17,0 13,4 12 6 21 11 NNE 1023,3 20 59 0,0
06.12.2019 13:00:00 16,8 13,8 7 4 14 8 ENE 1023,7 19 45 -
06.12.2019 12:00:00 16,7 14,9 5 3 9 5 ENE 1024,4 20 60 0,0
06.12.2019 11:00:00 14,0 13,6 1 1 10 6 WNW 1024,8 20 60 0,0
06.12.2019 10:00:00 9,8 9,7 4 2 9 5 SSW 1024,7 14 20 0,0
06.12.2019 09:00:00 8,4 8,1 5 3 10 5 S 1024,0 13 0 0,0
06.12.2019 08:00:00 8,0 7,7 8 4 11 6 SSW 1023,6 9 0 0,0
06.12.2019 07:00:00 8,1 7,8 5 3 10 5 S 1023,3 10 0 -
06.12.2019 06:00:00 8,4 8,1 6 3 13 7 SSW 1022,8 12 0 0,0
06.12.2019 05:00:00 8,2 7,8 5 3 12 7 SW 1022,8 9 0 0,0
06.12.2019 04:00:00 8,1 7,8 4 2 10 5 S 1022,5 7 0 0,0
06.12.2019 03:00:00 8,3 8,0 8 4 12 6 SSW 1022,7 9 0 0,0
06.12.2019 02:00:00 8,4 8,0 5 3 11 6 SSW 1022,5 7 0 0,0
06.12.2019 01:00:00 8,4 8,0 5 3 9 5 SSW 1022,5 5 0 -
06.12.2019 00:00:00 8,7 8,3 6 4 11 6 S 1022,9 7 0 0,0
05.12.2019 23:00:00 9,3 8,7 7 4 10 5 SSW 1022,3 6 0 0,0
05.12.2019 22:00:00 10,2 9,6 4 2 10 6 WSW 1021,9 5 0 0,0
05.12.2019 21:00:00 10,5 9,7 6 3 8 5 S 1021,6 9 0 0,0
05.12.2019 20:00:00 11,2 10,3 3 1 8 4 SW 1021,2 10 0 0,0
05.12.2019 19:00:00 12,5 11,4 5 3 6 3 W 1020,4 15 0 -
05.12.2019 18:00:00 13,7 11,6 1 1 11 6 NNE 1019,5 17 0 0,0
05.12.2019 17:00:00 15,6 12,1 8 4 11 6 NNE 1018,8 20 21 0,0
05.12.2019 16:00:00 17,2 11,4 3 2 12 7 S 1018,3 20 32 0,0
05.12.2019 15:00:00 16,7 12,4 8 4 13 7 S 1017,8 20 0 0,0
05.12.2019 14:00:00 17,4 11,0 7 4 12 7 SSE 1017,3 20 42 0,0
05.12.2019 13:00:00 17,6 12,1 7 4 13 7 S 1017,0 20 57 -
05.12.2019 12:00:00 16,6 13,6 6 3 13 7 SSW 1017,3 20 60 0,0
05.12.2019 11:00:00 14,3 13,1 2 1 11 6 SE 1017,1 20 60 0,0
05.12.2019 10:00:00 11,0 10,6 2 1 10 5 SSW 1016,7 20 60 0,0
05.12.2019 09:00:00 7,9 7,7 6 3 12 6 SSW 1015,6 20 42 0,0

tt = temperature
td = dewpoint
ff = wind speed
fx = gusts
dd = wind direction
ppp = reduced air pressure
vv = visibility
sd = sunshine duration
rr = precipitation

Next stations